Regional Weather Roundup
Issued by NWS New Orleans/Baton Rouge, LA

Home | Current Version | Previous Version | Graphics & Text | Print | Product List | Glossary On
Versions: 1 2 3 4 5 6 7 8 9 10 11 12 13 14 15 16 17 18 19 20 21 22 23 24 25 26 27 28 29 30 31 32 33 34 35 36 37 38 39 40 41 42 43 44 45 46 47 48 49 50
732
ASUS44 KLIX 050005
RWRLIX
NEW ORLEANS REGIONAL WEATHER ROUNDUP
NATIONAL WEATHER SERVICE NEW ORLEANS LA
600 PM CST WED MAR 04 2015

NOTE: "FAIR" INDICATES FEW OR NO CLOUDS BELOW 12,000 FEET WITH NO
      SIGNIFICANT WEATHER AND/OR OBSTRUCTIONS TO VISIBILITY.
      SKY/WX - SKY CONDITION AND SIGNIFICANT WEATHER.
      TMP - AIR TEMPERATURE.     DP    - DEWPOINT TEMPERATURE.
      RH  - RELATIVE HUMIDITY.   PRES  - PRESSURE.
      HI  - HEAT INDEX.          WCI   - WIND CHILL INDEX.

*  THESE STATIONS ARE NOT NWS OR FAA STATIONS AND ARE NOT UNDER
   NWS QUALITY CONTROL.

LAZ038-040-048-061>063-065>067-069-050100-
SOUTHEAST LOUISIANA

CITY           SKY/WX    TMP DP  RH WIND       PRES   REMARKS
N.O. AUDUBON     N/A     74  70  87 MISG        N/A
6HR MIN TEMP:  73; 6HR MAX TEMP:  82;

N.O. INTL ARPT PTCLDY    76  67  73 S15       29.89F
6HR MIN TEMP:  76; 6HR MAX TEMP:  82;

N.O. LAKEFRONT CLEAR     77  66  68 S17       29.90S
6HR MIN TEMP:  77; 6HR MAX TEMP:  85;

SLIDELL        PTCLDY    76  69  79 S10       29.89S
6HR MIN TEMP:  76; 6HR MAX TEMP:  81; 6HR PCP: TRACE;

BATON ROUGE    MOCLDY    78  66  66 S10       29.86S
6HR MIN TEMP:  77; 6HR MAX TEMP:  84; 6HR PCP: TRACE;

BOOTHVILLE     CLEAR     73  71  93 S8        29.92F
6HR MIN TEMP:  73; 6HR MAX TEMP:  79;

BELLE CHASSE   MOCLDY    77  69  76 SW10      29.90S
6HR MIN TEMP:  77; 6HR MAX TEMP:  84;

BOGALUSA*        N/A     79  65  62 S13       29.90R
6HR MIN TEMP:  79; 6HR MAX TEMP:  84;

GALLIANO*      PTCLDY    77  71  80 S12G18    29.91S
6HR MIN TEMP:  77; 6HR MAX TEMP:  83;

NEW ROADS*     MOCLDY    76  66  72 S12       29.85F
6HR MIN TEMP:  76; 6HR MAX TEMP:  82;

GONZALES*      CLOUDY    76  69  79 S8        29.87S
6HR MIN TEMP:  76; 6HR MAX TEMP:  82;

HAMMOND*       MOCLDY    77  63  61 S9        29.89S
HOUMA*         MOCLDY    75  70  83 S9        29.90S
PORT FOURCHON* PTCLDY    75  72  88 S6        29.94S FOG

$$

MSZ070-080>082-050100-
SOUTHERN MISSISSIPPI

CITY           SKY/WX    TMP DP  RH WIND       PRES   REMARKS
MCCOMB         CLOUDY    76  65  68 S9        29.86S
6HR MIN TEMP:  76; 6HR MAX TEMP:  82;

GULFPORT       CLOUDY    68  66  93 S6        29.92S
6HR MIN TEMP:  68; 6HR MAX TEMP:  71; 6HR PCP:  0.34;

BILOXI         FOG       68  68 100 S9        29.92S VSB 1
6HR MIN TEMP:  68; 6HR MAX TEMP:  72; 6HR PCP: TRACE;

PASCAGOULA     CLOUDY    73  70  90 S9        29.92S
6HR MIN TEMP:  73; 6HR MAX TEMP:  79; 6HR PCP: TRACE;

STENNIS ARPT*  MOCLDY    72  64  78 S6        29.91S

$$

COASTAL OBSERVATIONS
LAKE AND NEARSHORE STATIONS

STATION/POSITION TIME  TEMP    WIND        PRES    WAVE
                       AIR SEA DIR/SP/G            HT/PER
                 (UTC) (F)     (DEG/KT/KT) (MB)    (FT/S)
PASCAGOULA       2323   71     160/ 15/ 20 1013.0
WAVELAND YACHT   2323   67 59  170/  9/ 10 1012.9
GRAND ISLE       2323   71 66  160/  5/  7 1013.6
SOUTHWEST PASS   2323   71 47  160/ 11/ 12 1013.7
NEW CANAL        2323   78     200/ 11/ 15 1013.0
SHELL BEACH      2323   77 63  190/ 11/ 16 1012.9

OFFSHORE STATIONS

STATION/POSITION TIME  TEMP    WIND        PRES    WAVE
                       AIR SEA DIR/SP/G            HT/PER
                 (UTC) (F)     (DEG/KT/KT) (MB)    (FT/S)

$$




USA.gov is the U.S. government's official web portal to all federal, state and local government web resources and services.